FW0643 Weather Reports


time (UTC)temp
F
wind
direction
speed
knots
gust
knots
rain 1hr
in
rain 24hr
in
rain mn
in
humidity
%
barometer
mb
20240518203624 60 51 0.0 1.7 0.00 0.23 0.23 98 1015.9
20240518202624 60 6 0.9 1.7 0.00 0.23 0.23 98 1016.1
20240518201524 60 134 0.0 1.7 0.00 0.23 0.23 98 1016.1
20240518195622 60 106 0.0 1.7 0.00 0.23 0.23 98 1016.3
20240518194625 61 337 0.0 0.9 0.00 0.23 0.23 98 1016.1
20240518193724 61 29 1.7 3.5 0.00 0.23 0.23 98 1016.2
20240518192724 61 180 0.0 0.0 0.00 0.23 0.23 98 1016.2
20240518191726 61 22 0.0 0.9 0.00 0.23 0.23 98 1016.4
20240518185724 61 304 0.9 6.1 0.00 0.23 0.23 98 1016.7
20240518184823 61 96 0.9 2.6 0.00 0.23 0.23 97 1016.5
20240518183824 61 327 0.0 1.7 0.00 0.23 0.23 98 1016.4
20240518182824 61 359 1.7 2.6 0.00 0.23 0.23 98 1016.5
20240518181823 61 344 0.9 2.6 0.00 0.23 0.23 98 1016.6
20240518180922 61 292 0.0 0.0 0.00 0.23 0.23 99 1016.7
20240518175925 61 360 0.0 0.9 0.00 0.23 0.23 99 1016.9
20240518175023 61 22 0.0 0.0 0.00 0.23 0.23 99 1016.7
20240518173023 61 67 0.0 0.0 0.00 0.23 0.23 98 1016.8
20240518172023 61 45 0.0 0.9 0.00 0.23 0.23 98 1017.1
20240518170123 60 360 0.0 0.9 0.00 0.23 0.23 99 1017.2
20240518165125 60 360 0.0 1.7 0.00 0.23 0.23 99 1017.3
20240518164124 60 360 0.0 0.0 0.00 0.23 0.23 99 1017.2
20240518163123 60 177 0.0 2.6 0.00 0.23 0.23 98 1017.1
20240518161124 60 157 0.0 0.0 0.01 0.23 0.23 98 1016.8
20240518160140 60 67 0.0 0.0 0.01 0.23 0.23 98 1016.9
20240518154223 59 337 0.0 1.7 0.01 0.23 0.23 99 1016.7
20240518153224 59 213 0.0 1.7 0.01 0.23 0.23 98 1017.0
20240518152242 59 340 0.0 0.0 0.01 0.23 0.23 98 1017.1
20240518150224 59 15 0.9 1.7 0.00 0.22 0.22 99 1017.2
20240518145223 59 225 0.0 1.7 0.00 0.22 0.22 98 1016.8
20240518143323 59 162 0.9 1.7 0.01 0.22 0.22 99 1016.9
20240518142325 59 29 0.9 3.5 0.02 0.22 0.22 99 1016.9
20240518141324 59 260 0.0 0.0 0.03 0.22 0.22 99 1016.9
20240518140424 59 360 0.9 1.7 0.04 0.22 0.22 98 1016.9
20240518135523 59 334 1.7 3.5 0.05 0.22 0.22 98 1017.0
20240518134524 59 360 0.0 1.7 0.07 0.22 0.22 99 1017.3
20240518134422 59 14 1.7 1.7 0.07 0.22 0.22 99 1017.3
20240518133423 59 131 0.9 1.7 0.07 0.21 0.21 98 1017.4
20240518132423 59 43 0.0 0.0 0.08 0.20 0.20 99 1017.6
20240518131424 59 37 0.0 0.0 0.08 0.19 0.19 99 1017.5
20240518131323 59 45 0.0 0.0 0.08 0.19 0.19 99 1017.6
20240518130325 59 45 0.0 0.0 0.09 0.18 0.17 98 1017.6
20240518125325 59 265 0.0 3.5 0.09 0.16 0.16 99 1017.6
20240518124423 59 360 0.0 0.0 0.09 0.15 0.15 98 1017.6
20240518123523 59 21 0.9 3.5 0.10 0.14 0.14 99 1017.6
20240518122524 59 45 0.0 0.0 0.10 0.13 0.12 99 1017.7
20240518121525 59 270 0.0 0.0 0.10 0.11 0.11 98 1017.9
20240518115623 59 202 0.0 0.0 0.08 0.08 0.08 99 1017.7
20240518112723 58 180 0.0 0.9 0.03 0.03 0.03 98 1017.2
20240518110724 59 67 0.0 0.9 0.01 0.01 0.01 98 1016.4
20240518105822 59 225 0.0 0.9 0.00 0.00 0.00 98 1016.3
20240518104823 59 360 0.0 1.7 0.00 0.00 0.00 97 1016.4
20240518103923 59 180 0.0 0.0 0.00 0.00 0.00 97 1016.8
20240518102024 59 315 0.0 0.0 0.00 0.00 0.00 97 1016.3
20240518101024 59 65 0.9 1.7 0.00 0.00 0.00 97 1016.1
20240518095024 59 225 0.0 0.0 0.00 0.00 0.00 97 1016.2
20240518094024 59 157 0.0 0.0 0.00 0.00 0.00 98 1015.8
20240518093025 58 22 0.0 0.0 0.00 0.00 0.00 97 1016.0
20240518092024 58 22 0.0 0.0 0.00 0.00 0.00 98 1016.3
20240518091023 58 270 0.0 0.0 0.00 0.00 0.00 98 1016.1
20240518090024 58 270 0.0 0.0 0.00 0.00 0.00 97 1016.4
20240518085025 58 360 0.0 0.0 0.00 0.00 0.00 98 1015.8
20240518084024 58 360 0.0 0.0 0.00 0.00 0.00 97 1016.0
20240518082024 58 157 0.0 0.0 0.00 0.00 0.00 97 1016.2
20240518080023 59 157 0.0 0.0 0.00 0.00 0.00 97 1016.9
20240518075024 58 157 0.0 0.0 0.00 0.00 0.00 97 1017.1
20240518074025 58 157 0.0 0.0 0.00 0.00 0.00 97 1017.2
20240518073124 58 157 0.0 0.0 0.00 0.00 0.00 97 1017.1
20240518072123 58 157 0.0 0.0 0.00 0.00 0.00 96 1017.2
20240518071124 58 157 0.0 0.0 0.00 0.00 0.00 97 1017.2
20240518070124 58 157 0.0 0.0 0.00 0.00 0.00 96 1017.2
20240518065123 58 157 0.0 0.0 0.00 0.00 0.00 97 1017.0
20240518063223 58 157 0.0 0.0 0.00 0.00 0.00 97 1017.4
20240518062222 58 157 0.0 0.0 0.00 0.00 0.00 97 1017.4
20240518061225 58 157 0.0 0.0 0.00 0.00 0.00 95 1017.2
20240518060224 58 157 0.0 0.0 0.00 0.00 0.00 95 1017.2
20240518055224 58 157 0.0 0.0 0.00 0.00 0.00 96 1017.3
20240518054223 58 157 0.0 0.0 0.00 0.00 0.00 96 1017.4
20240518053223 58 157 0.0 0.0 0.00 0.00 0.00 96 1017.5
20240518052225 58 157 0.0 0.0 0.00 0.00 0.00 95 1017.6
20240518051322 59 157 0.0 0.0 0.00 0.00 0.00 96 1017.5
20240518051224 59 157 0.0 0.0 0.00 0.00 0.00 95 1017.5
20240518050223 59 22 0.0 1.7 0.00 0.00 0.00 96 1017.5
20240518045223 59 157 0.0 0.0 0.00 0.00 0.00 95 1017.8
20240518044322 59 157 0.0 0.0 0.00 0.00 0.00 96 1018.0
20240518042423 59 157 0.0 0.0 0.00 0.00 0.00 95 1018.4
20240518040424 59 157 0.0 0.0 0.00 0.00 0.00 95 1018.3
20240518035442 59 157 0.0 0.0 0.00 0.00 0.00 94 1018.2
20240518034541 59 157 0.0 0.0 0.00 0.00 0.00 94 1018.1
20240518033641 59 157 0.0 0.0 0.00 0.00 0.00 94 1018.3
20240518031741 59 157 0.0 0.0 0.00 0.00 0.00 94 1018.5
20240518030744 59 157 0.0 0.0 0.00 0.00 0.00 94 1018.5
20240518025742 59 157 0.0 0.0 0.00 0.00 0.00 93 1018.3
20240518024841 59 157 0.0 0.0 0.00 0.00 0.00 94 1018.3
20240518023844 59 157 0.0 0.0 0.00 0.00 0.00 93 1018.4
20240518022941 59 157 0.0 0.0 0.00 0.00 0.00 94 1018.3
20240518021941 59 157 0.0 0.0 0.00 0.00 0.00 93 1018.0
20240518020942 59 157 0.0 0.0 0.00 0.00 0.00 93 1018.1
20240518014043 59 247 0.0 0.0 0.00 0.00 0.00 91 1018.0
20240518013141 59 247 0.0 0.0 0.00 0.00 0.00 92 1018.0
20240518012240 60 247 0.0 0.0 0.00 0.00 0.00 91 1018.0
20240518011243 60 247 0.0 0.9 0.00 0.00 0.00 90 1017.9
20240518010243 60 247 0.0 0.0 0.00 0.00 0.00 89 1017.7
20240518005243 60 247 0.0 0.0 0.00 0.00 0.00 90 1017.6
20240518003343 61 22 0.0 0.0 0.00 0.00 0.00 89 1017.5
20240518002342 61 180 0.0 0.0 0.00 0.00 0.00 89 1017.5
20240518001343 62 202 0.0 0.0 0.00 0.00 0.00 88 1017.7
20240518000340 62 67 0.0 0.0 0.00 0.00 0.00 88 1017.6
20240517235342 62 357 0.0 2.6 0.00 0.00 0.00 87 1017.5
20240517232443 64 202 0.0 0.0 0.00 0.00 0.00 85 1017.3
20240517231444 65 94 0.9 1.7 0.00 0.00 0.00 85 1017.1
20240517230542 65 180 0.0 0.0 0.00 0.00 0.00 84 1016.9
20240517230443 65 180 0.0 0.0 0.00 0.00 0.00 84 1016.9
20240517225441 65 337 0.0 0.0 0.00 0.00 0.00 82 1017.1
20240517224540 65 337 0.0 0.0 0.00 0.00 0.00 82 1016.8
20240517222544 66 225 0.0 0.0 0.00 0.00 0.00 82 1016.8
20240517221544 66 67 0.0 0.0 0.00 0.00 0.00 82 1016.9
20240517220542 66 67 0.0 0.9 0.00 0.00 0.00 80 1017.1
20240517215542 66 185 0.0 0.0 0.00 0.00 0.00 81 1017.1
20240517213642 67 216 0.0 1.7 0.00 0.00 0.00 79 1016.9
20240517212640 67 270 0.0 0.0 0.00 0.00 0.00 79 1017.1
20240517211641 68 13 0.0 0.9 0.00 0.00 0.00 78 1017.2
20240517205641 68 292 0.9 2.6 0.00 0.00 0.00 77 1017.2
20240517204643 68 219 0.0 0.9 0.00 0.00 0.00 77 1017.2